Danbury, CT

2:47 PM EST on February 06, 2016 (GMT -0500)
Danbury Municipal

Weather History for KDXR - April, 2014

Change the Weather History Date:

Monday, April 14, 2014

  Actual Average Record
Temperature  
Mean Temperature 64 °F -  
Max Temperature 72 °F 59 °F 75 °F (1949)
Min Temperature 57 °F 35 °F 24 °F (1950)
Degree Days  
Heating Degree Days 1    
Growing Degree Days 14 (Base 50)    
Moisture  
Dew Point 53 °F    
Average Humidity 71    
Maximum Humidity 87    
Minimum Humidity 54    
Precipitation  
Precipitation 0.00 in - - ()
Sea Level Pressure  
Sea Level Pressure 29.95 in    
Wind  
Wind Speed 11 mph (South)    
Max Wind Speed 18 mph    
Max Gust Speed 31 mph    
Visibility 10 miles    
Events      
Averages and records for this station are not official NWS values.
T = Trace of Precipitation, MM = Missing Value Source: NWS Daily Summary

Daily Weather History Graph

Daily Weather History Graph

Search for Another Location

Airport or City:

Trip Planner

Search our weather history database for the weather conditions in past years. The results will help you decide how hot, cold, wet, or windy it might be!

Date:

Astronomy

Apr. 14, 2014 Rise Set
Actual Time 6:15 AM EDT 7:33 PM EDT
Civil Twilight 5:47 AM EDT 8:01 PM EDT
Nautical Twilight 5:13 AM EDT 8:36 PM EDT
Astronomical Twilight 4:36 AM EDT 9:12 PM EDT
Moon 7:09 PM EDT (4/14) 5:47 AM EDT (4/14)
Length of Visible Light 14h 14m
Length of Day
13h 17m
Full, 100% of the Moon is Illuminated
Apr 14
Full
Apr 15
Full
Apr 22
Last Quarter
Apr 29
New
May 6
First Quarter

Hourly Weather History & Observations

Time (EDT) Temp. Dew Point Humidity Pressure Visibility Wind Dir Wind Speed Gust Speed Precip Events Conditions
12:53 AM 60.1 °F 52.0 °F 75% 30.03 in 10.0 mi South 10.4 mph - N/A   Clear
1:53 AM 59.0 °F 52.0 °F 78% 30.02 in 10.0 mi South 6.9 mph - N/A   Clear
2:53 AM 57.0 °F 52.0 °F 83% 30.01 in 10.0 mi South 6.9 mph - N/A   Clear
3:53 AM 57.9 °F 53.1 °F 84% 30.00 in 10.0 mi South 5.8 mph - N/A   Clear
5:53 AM 57.9 °F 54.0 °F 87% 29.99 in 10.0 mi South 8.1 mph - N/A   Clear
6:53 AM 57.0 °F 53.1 °F 87% 30.00 in 9.0 mi South 10.4 mph - N/A   Clear
7:53 AM 59.0 °F 54.0 °F 83% 30.01 in 10.0 mi South 8.1 mph - N/A   Clear
8:53 AM 62.1 °F 54.0 °F 75% 30.00 in 10.0 mi South 10.4 mph 20.7 mph N/A   Clear
9:53 AM 64.0 °F 54.0 °F 70% 30.00 in 10.0 mi SSW 15.0 mph 18.4 mph N/A   Partly Cloudy
10:53 AM 66.0 °F 54.0 °F 65% 29.99 in 10.0 mi SSW 11.5 mph 20.7 mph N/A   Clear
11:53 AM 70.0 °F 55.0 °F 59% 29.97 in 10.0 mi South 11.5 mph 24.2 mph N/A   Clear
12:53 PM 71.1 °F 55.9 °F 59% 29.94 in 10.0 mi SSW 13.8 mph 31.1 mph N/A   Partly Cloudy
2:53 PM 71.1 °F 55.0 °F 57% 29.92 in 10.0 mi South 15.0 mph 27.6 mph N/A   Clear
3:53 PM 70.0 °F 54.0 °F 57% 29.89 in 10.0 mi South 18.4 mph 27.6 mph N/A   Clear
4:53 PM 69.1 °F 52.0 °F 54% 29.89 in 10.0 mi South 15.0 mph 27.6 mph N/A   Clear
5:53 PM 66.0 °F 52.0 °F 60% 29.88 in 10.0 mi South 15.0 mph 26.5 mph N/A   Clear
6:53 PM 64.0 °F 51.1 °F 63% 29.87 in 10.0 mi South 12.7 mph 27.6 mph N/A   Clear
7:53 PM 62.1 °F 51.1 °F 67% 29.88 in 10.0 mi South 15.0 mph 20.7 mph N/A   Clear
8:53 PM 61.0 °F 52.0 °F 72% 29.88 in 10.0 mi South 12.7 mph 21.9 mph N/A   Clear
9:53 PM 62.1 °F 54.0 °F 75% 29.88 in 10.0 mi South 18.4 mph 23.0 mph N/A   Clear
10:53 PM 61.0 °F 54.0 °F 78% 29.88 in 10.0 mi South 11.5 mph 21.9 mph N/A   Clear
11:53 PM 60.1 °F 55.0 °F 83% 29.88 in 10.0 mi South 11.5 mph 23.0 mph N/A   Clear